APSTAR-7

Last updated on Sun Apr 12 2026 00:02:52 GMT+0000 (Coordinated Universal Time)

1 38107U 12013A 26101.53585744 -.00000100 00000+0 00000+0 0 9997 2 38107 0.0137 146.1229 0003036 256.1415 66.9050 1.00272249 51147
UTC large
Height (km)
Speed (km/s)
/
Latitude / Longitude
Inclination (degrees)
Orbital Period (minutes)
Azimuth
Elevation
Range (km)
Doppler Factor

Next 0 passes for location: London (51.5072 / 0.1276)

Sorry there are no passes over London.
APSTAR-7